Volver al catálogo

TIBA-1

ActivoComunicacionesGEO
NORAD 44800·PAYLOAD·🇪🇬 Egypt

Lanzado Nov 26, 2019 desde Guiana Space Centre

Loading…

TLE

ActualizadoSource: Space-Track

Época: Sep 14, 2026, 13:58 UTC

1 44800U 19080A   26257.58212104  .00000148  00000-0  00000-0 0  9992
2 44800   0.0558 340.8599 0002384 196.8072  60.9388  1.00274469 24940

Sigue TIBA-1 en tiempo real con AllMySat

Download on the App Store